RH
82 92 97 100 98 95 92 88 86 87 84 90 83 98 99 100 94 97 85 76 46 43 36 29 26 29 28 28 23 19 21 23 25 25 23 25 26 24
90 86 98 94 98 96 93 89 92 89 98 98 100 100 99 88 92 97 84 54 41 39 33 25 28 26 28 29 27 22 23 24 26 28 26 25 25 25
93 96 98 99 99 92 88 92 94 92 99 98 98 98 99 83 97 93 68 43 37 33 28 27 26 29 30 30 28 25 25 26 28 32 28 29 28 26
99 97 97 99 99 94 96 91 89 98 100 100 99 100 87 97 96 72 46 41 37 32 27 28 30 31 31 29 28 28 31 33 32 34 32 31 30 26
99 100 98 99 98 100 92 98 100 100 100 99 100 94 81 92 84 52 44 41 34 29 31 33 32 32 30 28 27 32 38 38 36 38 37 35 34 30
100 100 99 99 99 97 100 98 100 99 99 100 95 98 99 82 60 49 41 36 33 36 36 37 36 34 31 29 32 37 42 42 40 39 39 44 57 54
100 99 100 98 99 99 99 99 99 99 100 89 100 90 81 76 58 44 40 37 42 39 37 37 36 35 32 34 37 41 46 44 44 44 52 98 79 71
98 99 98 99 99 100 100 100 100 96 91 100 92 90 86 70 51 45 41 44 42 41 39 39 38 38 39 42 42 45 46 47 48 49 93 82 76 99
98 98 98 99 99 100 98 99 98 95 99 100 96 91 80 61 50 45 45 47 46 44 44 45 44 46 45 44 45 48 52 52 53 59 100 88 100 82
98 97 99 99 98 95 89 85 92 100 97 99 98 91 78 58 50 49 51 52 49 46 45 48 50 51 50 49 50 52 55 56 59 62 80 96 94 93
92 87 94 88 83 86 85 100 99 98 100 98 96 97 81 63 57 54 56 56 52 49 49 54 54 57 55 56 57 58 57 55 62 64 76 99 99 99
78 80 78 98 96 88 92 97 90 100 94 97 80 86 83 68 61 59 60 60 54 49 55 58 58 62 63 64 62 59 53 42 37 32 36 58 96 99
82 83 80 81 90 98 84 98 98 98 98 90 77 87 84 75 70 63 66 63 53 49 62 63 65 66 67 66 63 54 36 26 24 23 23 23 23 38
76 80 82 80 87 91 95 98 99 90 94 94 85 81 80 82 74 71 72 64 52 56 64 67 69 66 64 59 53 39 27 27 28 27 27 26 24 23
75 89 90 85 84 85 82 79 84 92 98 94 87 84 75 90 79 75 75 65 55 66 70 72 66 63 54 41 31 26 28 31 30 28 25 25 26 30
82 90 95 92 98 99 99 99 99 98 97 94 83 95 80 96 85 81 74 62 61 73 73 69 60 61 59 42 28 25 26 31 32 32 46 63 70 70
97 97 95 98 98 97 97 96 96 98 98 95 97 88 93 98 93 86 69 64 72 79 78 74 71 71 63 48 34 30 32 31 42 65 75 77 79 81
90 100 99 98 100 100 98 98 95 94 93 98 90 92 98 97 96 91 70 79 85 81 78 79 81 80 69 48 38 35 34 30 48 69 79 83 90 93
96 92 99 100 99 98 98 94 94 94 98 96 93 98 96 97 97 85 78 89 89 85 84 80 79 80 69 52 44 39 36 42 54 81 87 76 78 94
99 100 100 99 98 98 98 97 96 98 98 98 97 95 96 97 98 92 91 95 91 88 83 79 76 71 66 56 48 53 49 54 82 91 93 81 79 82
98 98 99 99 98 98 98 98 98 97 97 97 97 98 96 96 98 93 96 98 94 87 79 76 73 72 61 40 44 52 56 61 75 84 78 77 82 92
96 96 96 96 97 97 98 97 96 97 96 97 97 97 96 97 97 96 99 99 96 89 84 80 74 73 74 67 52 44 39 42 46 52 60 70 68 69
96 96 97 95 96 96 97 96 96 96 96 96 96 96 96 96 96 98 95 92 90 89 86 77 76 78 81 82 77 78 82 81 73 72 66 66 63 58
Wind_Speed
36 37 38 35 41 32 34 37 42 43 41 39 47 36 32 26 26 25 25 27 28 25 25 25 23 24 25 26 25 25 25 25 24 23 24 23 22 20
41 41 42 40 36 41 34 36 39 42 41 42 31 24 22 21 25 23 26 29 26 25 24 24 24 24 26 27 27 25 26 25 24 24 25 23 22 19
41 44 37 32 31 39 40 38 39 51 44 40 26 25 19 21 24 26 27 26 26 25 25 24 24 26 27 27 27 26 26 25 24 24 24 21 20 17
44 49 48 44 46 41 41 38 41 38 39 32 19 22 23 21 24 26 26 25 25 25 24 24 26 26 27 27 26 25 26 25 24 23 22 21 18 15
50 36 44 46 43 40 40 35 39 35 28 22 22 23 22 23 26 26 26 26 25 25 25 26 28 27 27 27 25 24 24 24 24 22 19 18 13 12
48 34 39 42 43 42 34 24 29 33 21 24 20 26 25 22 27 26 26 25 24 24 26 28 29 26 26 26 24 24 22 23 23 21 16 12 10 9
39 42 41 42 36 31 29 23 25 23 28 24 23 22 19 22 26 25 25 24 24 26 28 28 28 27 26 26 23 22 20 19 19 21 11 5 8 5
52 50 43 41 37 26 29 34 30 28 20 25 24 23 23 25 25 24 23 23 25 26 27 27 26 26 25 24 22 20 18 17 16 16 11 11 9 5
41 26 25 24 25 27 30 36 23 30 25 26 28 23 24 25 25 23 24 24 25 27 26 26 26 25 24 22 20 19 16 15 15 15 14 7 8 7
20 24 24 24 23 26 27 34 33 28 31 32 26 22 25 25 25 24 23 25 26 26 25 24 25 23 22 21 19 17 15 13 15 16 11 11 10 5
25 26 25 26 31 28 27 31 31 29 26 24 20 22 25 25 25 24 24 25 25 25 25 23 22 21 20 18 17 15 14 12 14 16 15 16 10 11
22 23 24 25 31 33 32 30 35 31 15 20 25 27 27 25 24 23 25 26 25 24 24 22 21 18 18 16 15 13 11 12 12 14 18 22 22 21
28 27 28 30 30 31 34 30 27 19 16 20 24 26 26 26 25 25 26 25 25 24 22 21 18 16 16 15 13 11 11 12 12 13 14 14 16 20
34 33 34 35 36 29 33 33 24 24 26 27 28 26 26 26 25 25 25 25 24 23 21 19 17 15 15 14 13 11 11 12 12 12 12 13 14 15
39 39 40 39 37 36 35 36 36 34 27 31 31 30 28 27 26 26 25 25 24 21 20 17 16 15 15 14 13 12 12 12 13 13 12 11 11 11
39 39 42 42 38 38 38 41 36 29 32 34 31 29 29 29 27 26 25 25 23 20 18 17 15 15 15 14 13 13 14 13 14 14 13 12 11 10
39 40 41 42 42 42 43 43 43 40 33 34 32 29 33 27 26 25 24 23 21 19 18 16 16 16 15 15 14 13 13 14 15 15 13 12 11 12
39 41 42 43 43 42 42 42 42 39 36 32 25 32 30 28 27 24 23 21 19 18 18 17 17 16 16 15 15 14 14 15 17 14 12 13 14 15
41 42 43 44 44 42 41 40 37 36 33 30 35 33 31 29 24 22 22 22 20 18 18 18 17 17 17 15 14 14 15 17 16 13 12 13 15 19
39 41 43 45 44 41 42 42 39 39 37 38 36 32 32 28 25 24 24 23 20 19 18 18 17 17 16 15 15 16 18 19 17 16 16 16 18 16
36 41 44 48 50 49 42 44 42 40 39 36 33 33 32 29 27 25 24 23 21 19 19 19 17 16 16 17 19 19 20 22 22 20 19 17 14 16
35 33 33 32 36 41 43 41 45 39 41 39 35 33 31 29 27 25 24 23 21 22 22 18 18 18 18 19 20 19 18 18 19 20 20 20 19 19
34 32 30 28 31 30 28 32 32 33 32 32 32 30 29 27 27 25 24 23 23 22 22 21 21 21 21 22 23 23 23 22 21 21 22 22 24 25
Wind_Direction
241 242 247 244 250 274 283 289 288 289 290 293 301 267 259 275 285 283 289 298 300 301 301 302 303 304 308 310 310 309 312 308 307 303 298 296 296 298
241 249 249 256 265 270 281 287 289 289 287 292 267 262 256 282 275 282 293 296 294 297 300 299 297 304 307 308 310 310 307 305 308 305 299 297 295 297
240 244 243 244 258 265 278 284 284 292 269 276 274 264 270 270 276 282 290 292 296 298 299 298 303 302 305 306 304 305 303 303 303 300 300 300 297 296
234 242 251 260 256 270 273 282 277 276 263 256 252 260 269 272 280 289 287 292 297 298 297 300 298 299 301 300 300 300 297 300 297 296 297 298 297 301
249 245 247 260 263 266 278 272 267 270 258 251 250 260 270 281 287 287 292 292 294 294 296 297 295 298 297 298 298 296 294 297 295 293 297 296 297 293
239 246 247 263 263 268 267 263 246 249 248 247 253 258 263 275 284 287 288 288 290 292 292 292 293 295 295 295 296 290 292 290 292 289 294 287 294 286
239 254 251 261 260 263 250 249 245 247 245 257 248 272 274 273 276 281 281 284 287 290 291 291 294 298 298 295 294 289 287 285 284 289 298 283 272 283
250 255 262 258 249 257 253 268 247 256 252 241 257 262 272 276 277 276 278 282 286 288 290 292 293 293 291 292 291 285 281 278 270 270 275 279 279 283
256 257 259 254 262 255 253 270 251 263 253 251 251 261 271 274 273 274 277 283 288 289 292 294 292 291 291 291 285 280 276 270 262 252 230 256 233 289
263 250 255 257 256 265 253 256 256 246 256 252 250 263 269 271 272 272 279 284 288 291 292 291 289 289 286 283 278 274 272 263 252 247 226 245 245 255
265 260 264 263 257 261 260 257 272 255 249 253 272 267 268 268 268 274 280 285 287 288 288 288 287 285 282 278 275 271 263 249 235 231 202 170 211 210
267 274 274 261 261 260 266 265 259 243 254 255 265 264 264 265 269 275 279 281 282 283 283 285 285 284 279 274 272 264 253 245 232 225 223 220 217 213
270 267 269 268 263 261 259 254 253 255 285 275 263 260 262 266 270 273 275 278 281 281 283 283 281 278 273 271 264 256 244 234 232 224 222 225 227 233
264 264 265 263 264 261 263 251 268 258 271 271 266 265 266 267 268 271 274 275 278 279 280 274 268 268 268 265 259 251 237 230 227 221 218 220 224 230
258 258 259 261 258 258 257 261 263 263 261 273 271 267 270 266 268 270 270 271 273 273 272 269 264 263 262 258 256 247 235 227 225 223 220 219 219 219
259 255 257 256 253 250 244 251 255 259 274 259 264 261 267 261 264 268 266 268 267 267 266 262 260 259 259 257 252 247 240 228 218 214 214 220 228 240
257 254 252 254 253 252 251 254 259 258 256 267 253 264 263 255 263 266 263 265 262 261 258 254 254 256 255 253 250 244 238 226 216 212 221 235 246 258
258 257 255 255 252 251 252 256 260 263 262 249 261 255 259 259 258 259 262 258 254 252 253 252 254 254 251 248 246 239 229 221 217 224 239 249 260 263
256 255 253 253 250 253 258 258 253 257 255 259 256 249 254 259 257 254 254 249 247 246 249 254 252 248 245 243 243 237 230 221 218 235 251 267 269 261
266 257 254 257 255 256 255 254 250 249 249 251 247 252 257 256 255 247 246 243 243 246 246 245 245 243 242 243 241 239 231 226 233 247 258 267 278 257
264 264 260 254 254 253 252 252 249 246 246 246 246 250 254 254 246 241 241 241 241 243 244 243 243 240 238 241 242 241 238 240 245 253 260 271 275 256
264 265 265 262 259 248 246 246 245 246 244 242 242 242 246 249 238 234 236 240 241 241 243 244 241 239 240 242 247 249 245 244 246 250 255 261 263 262
263 259 261 264 258 246 241 237 237 239 235 236 238 237 242 237 228 229 232 239 241 245 246 243 242 242 243 244 247 249 249 250 251 255 258 262 265 266